[[{"header":{"parameterUnit":"m.s-1","parameterCategory":1,"la1":30.2991,"la2":30.254,"lo1":-89.0895,"lo2":-89.0444,"dy":0.0017,"dx":0.0017,"nx":28,"ny":28,"refTime":"2023-04-23T21:00:00:Z","depth":0,"parameterNumber":2,"parameterNumberName":"U-component_of_WINDS"},"data":[0,0,0,0,0,0,0,0,0,0,0,0,0,0,0,0,0,0,0,0,0,0,0,0,0,0,0,0,0,0,0,0,0,0,0,0,0,0,0,0,0,0,0,0,0,0,0,0,0,0,0,0,0,0,0,0,0,0,-2.6501,-2.6501,0,-2.6517,-2.6517,-2.6518,-2.6476,-2.6475,-2.6474,-2.6472,-2.6488,-2.649,-2.6492,0,0,0,0,0,0,0,0,0,0,0,0,0,-2.6434,-2.6436,-2.6501,-2.6501,-2.6502,-2.6517,-2.6517,-2.6518,-2.6476,-2.6475,-2.6473,-2.6472,-2.6488,-2.649,-2.6492,0,0,0,0,0,0,0,0,0,0,0,0,0,-2.6458,-2.6436,-2.6501,-2.6483,-2.6482,-2.6517,-2.6517,-2.6518,-2.6477,-2.6475,-2.6473,-2.6471,-2.6487,-2.649,-2.6492,-2.6546,0,0,-2.65,-2.6501,0,0,0,0,0,0,0,0,-2.6457,-2.6461,-2.6485,-2.6484,-2.6483,-2.6493,-2.65,-2.6527,-2.6477,-2.6479,-2.6472,-2.647,-2.6491,-2.6493,-2.6501,-2.6547,-2.6547,-2.65,-2.6501,-2.6502,-2.6503,0,0,0,0,0,0,0,-2.6455,-2.646,-2.6508,-2.6486,-2.6484,-2.6474,-2.6475,-2.6505,-2.6496,-2.6478,-2.6475,-2.6478,-2.649,-2.6498,-2.6501,-2.6548,-2.65,-2.6502,-2.6503,-2.6504,-2.6638,-2.664,0,0,0,0,0,0,-2.6456,-2.6459,-2.6507,-2.6508,-2.6465,-2.6476,-2.6478,-2.6491,-2.6495,-2.6494,-2.6479,-2.6476,-2.6495,-2.6498,-2.6501,-2.6565,-2.6502,-2.6505,-2.6506,-2.6636,-2.6639,-2.6641,0,0,0,0,0,0,-2.6455,-2.6461,-2.6506,-2.6482,-2.6487,-2.648,-2.6495,-2.6493,-2.6501,-2.6496,-2.6494,-2.649,-2.6494,-2.6498,-2.6535,-2.6565,-2.6506,-2.6508,-2.6634,-2.6637,-2.664,-2.6692,0,0,0,0,0,0,-2.6453,-2.646,-2.6481,-2.6483,-2.6489,-2.6541,-2.6497,-2.6495,-2.6505,-2.6501,-2.6505,-2.6504,-2.6493,-2.6532,-2.6538,-2.6567,-2.651,-2.6631,-2.6635,-2.6639,-2.6688,-2.6697,-2.6704,0,0,0,0,0,-2.6451,-2.6495,-2.6483,-2.6489,-2.6515,-2.6542,-2.6546,-2.6532,-2.6508,-2.6529,-2.6525,-2.6504,-2.656,-2.6536,-2.6542,-2.6573,-2.6629,-2.6634,-2.6639,-2.6684,-2.6695,-2.6704,0,0,0,0,0,0,-2.6497,-2.6495,-2.6481,-2.6528,-2.6536,-2.6535,-2.6561,-2.6544,-2.6559,-2.6554,-2.6535,-2.6537,-2.6578,-2.6579,-2.6552,-2.6625,-2.6591,-2.6597,-2.6623,-2.6633,-2.6641,-2.6641,-2.6512,0,0,0,0,0,-2.6513,-2.6536,-2.6533,-2.6574,-2.6579,-2.6569,-2.6581,-2.6569,-2.6577,-2.658,-2.6579,-2.6587,-2.6606,-2.662,-2.6637,-2.6687,-2.6688,-2.6711,-2.672,-2.6726,-2.6732,-2.6759,-2.6769,-2.6657,-2.6657,-2.6656,0,0,-2.6545,-2.6547,-2.6563,-2.6583,-2.6588,-2.6612,-2.6572,-2.6599,-2.6617,-2.6584,-2.6619,-2.6619,-2.6626,-2.6671,-2.669,-2.6673,-2.6763,-2.6732,-2.6738,-2.674,-2.6765,-2.6776,-2.6785,-2.666,-2.6659,-2.6659,0,0,-2.6617,-2.6621,-2.6656,-2.6661,-2.6669,-2.6662,-2.667,-2.6673,-2.6671,-2.6707,-2.6682,-2.6702,-2.6736,-2.6743,-2.675,-2.6823,-2.6804,-2.6829,-2.6873,-2.6899,-2.6908,-2.6916,-2.6943,-2.6952,-2.6835,-2.6835,-2.6835,0,-2.6657,-2.6693,-2.6676,-2.6705,-2.6715,-2.6685,-2.672,-2.6726,-2.6739,-2.6746,-2.6727,-2.6768,-2.6771,-2.6816,-2.6834,-2.6841,-2.685,-2.683,-2.6908,-2.6916,-2.6923,-2.6948,-2.6958,-2.6838,-2.6838,-2.6838,-2.6837,0,-2.6741,-2.6766,-2.6793,-2.6806,-2.6819,-2.6851,-2.6839,-2.6853,-2.684,-2.6836,-2.6872,-2.6874,-2.6891,-2.6901,-2.6889,-2.6944,-2.6933,-2.6911,-2.6877,-2.6937,-2.6961,-2.697,-2.6843,-2.6842,-2.6841,-2.684,0,0,-2.6844,-2.6847,-2.6858,-2.6863,-2.6869,-2.6888,-2.6918,-2.6935,-2.6948,-2.6957,-2.6982,-2.7011,-2.699,-2.6999,-2.6987,-2.7009,-2.7068,-2.6984,-2.6984,-2.7,-2.7129,-2.7147,-2.7158,-2.7054,-2.7056,-2.7058,-2.7129,0,-2.6916,-2.6968,-2.6954,-2.7006,-2.7028,-2.7,-2.7026,-2.7032,-2.7028,-2.7047,-2.7042,-2.7063,-2.7034,-2.7039,-2.706,-2.7056,-2.7094,-2.7051,-2.7078,-2.7079,-2.7078,-2.7171,-2.7189,-2.7257,-2.7138,-2.714,-2.7141,0,-2.7007,-2.702,-2.7074,-2.7076,-2.7085,-2.7109,-2.7123,-2.7141,-2.7147,-2.7142,-2.7151,-2.7134,-2.7163,-2.7128,-2.7168,-2.7139,-2.7149,-2.7148,-2.7151,-2.7154,-2.7114,-2.7177,-2.7278,-2.7289,-2.7155,-2.7154,-2.7153,0,-2.7078,-2.7109,-2.7145,-2.7151,-2.7153,-2.7171,-2.7172,-2.7176,-2.7187,-2.7199,-2.7206,-2.7222,-2.723,-2.7242,-2.723,-2.7205,-2.7272,-2.7235,-2.7269,-2.727,-2.7286,-2.7285,-2.7391,-2.7291,-2.729,-2.729,-2.729,0,-2.716,-2.7195,-2.7177,-2.72,-2.7237,-2.722,-2.7257,-2.7256,-2.7259,-2.7281,-2.7257,-2.7278,-2.7259,-2.7278,-2.7268,-2.7303,-2.7307,-2.7304,-2.7301,-2.7307,-2.7308,-2.7314,-2.731,-2.7293,-2.7292,-2.7292,-2.7291,0,-2.7246,-2.7236,-2.7274,-2.7273,-2.7273,-2.7301,-2.73,-2.732,-2.7314,-2.7342,-2.7347,-2.7337,-2.7358,-2.7346,-2.7368,-2.7361,-2.7407,-2.7397,-2.7405,-2.7403,-2.7438,-2.7435,-2.7553,-2.7568,-2.7457,-2.7458,-2.7459,0,-2.73,-2.7326,-2.7328,-2.734,-2.7344,-2.7364,-2.7375,-2.7359,-2.7371,-2.7379,-2.7399,-2.7418,-2.7432,-2.7467,-2.7462,-2.7478,-2.7469,-2.7509,-2.7471,-2.7476,-2.747,-2.747,-2.7472,-2.7517,-2.7518,-2.7519,-2.752,0,-2.7397,-2.7391,-2.7408,-2.7423,-2.7436,-2.7447,-2.7456,-2.7468,-2.7451,-2.7466,-2.7487,-2.7498,-2.752,-2.7539,-2.7553,-2.7554,-2.7535,-2.7531,-2.754,-2.7547,-2.7551,-2.755,-2.7427,-2.7529,-2.7528,-2.7528,-2.7527,-2.7527,-2.747,-2.7491,-2.7496,-2.7515,-2.752,-2.7529,-2.7548,-2.7544,-2.7561,-2.7578,-2.7566,-2.7591,-2.7596,-2.7612,-2.7616,-2.7635,-2.7619,-2.7631,-2.7635,-2.7639,-2.7644,-2.7547,-2.7637,-2.7637,-2.7636,-2.7636,-2.7636,0,-2.7566,-2.7567,-2.7585,-2.7598,-2.7614,-2.7593,-2.7602,-2.7616,-2.7638,-2.7644,-2.7658,-2.7682,-2.77,-2.7696,-2.7712,-2.7728,-2.772,-2.7733,-2.7733,-2.7733,-2.7657,-2.7648,-2.774,-2.774,-2.774,-2.774,-2.774,-2.774,-2.7618,-2.7654,-2.7648,-2.7685,-2.7686,-2.771,-2.7717,-2.7725,-2.7729,-2.7757,-2.7772,-2.7769,-2.777,-2.7786,-2.7802,-2.78,-2.7808,-2.7825,-2.782,-2.7749,-2.7739,-2.7729,-2.7721,-2.7826,-2.7826,-2.7895,-2.7895,-2.7896]},{"header":{"parameterUnit":"m.s-1","parameterCategory":1,"la1":30.2991,"la2":30.254,"lo1":-89.0895,"lo2":-89.0444,"dy":0.0017,"dx":0.0017,"nx":28,"ny":28,"refTime":"2023-04-23T21:00:00:Z","depth":0,"parameterNumber":3,"parameterNumberName":"V-component_of_WINDS"},"data":[0,0,0,0,0,0,0,0,0,0,0,0,0,0,0,0,0,0,0,0,0,0,0,0,0,0,0,0,0,0,0,0,0,0,0,0,0,0,0,0,0,0,0,0,0,0,0,0,0,0,0,0,0,0,0,0,0,0,-5.6906,-5.6907,0,-5.6926,-5.6926,-5.6927,-5.6871,-5.687,-5.6868,-5.6866,-5.6883,-5.6885,-5.6887,0,0,0,0,0,0,0,0,0,0,0,0,0,-5.6818,-5.6819,-5.6906,-5.6907,-5.6907,-5.6926,-5.6926,-5.6927,-5.6872,-5.6869,-5.6867,-5.6865,-5.6882,-5.6885,-5.6887,0,0,0,0,0,0,0,0,0,0,0,0,0,-5.6849,-5.682,-5.6906,-5.6882,-5.688,-5.6926,-5.6926,-5.6927,-5.6872,-5.6869,-5.6867,-5.6864,-5.6881,-5.6884,-5.6887,-5.6957,0,0,-5.6897,-5.6898,0,0,0,0,0,0,0,0,-5.6847,-5.6852,-5.6885,-5.6884,-5.6881,-5.6894,-5.6901,-5.6937,-5.6873,-5.6875,-5.6866,-5.6863,-5.6888,-5.6891,-5.69,-5.6958,-5.6959,-5.6897,-5.6899,-5.69,-5.6901,0,0,0,0,0,0,0,-5.6845,-5.6851,-5.6914,-5.6886,-5.6883,-5.6869,-5.687,-5.6908,-5.6895,-5.6874,-5.687,-5.6874,-5.6887,-5.6897,-5.69,-5.6959,-5.6897,-5.69,-5.6901,-5.6903,-5.7076,-5.7079,0,0,0,0,0,0,-5.6846,-5.6849,-5.6913,-5.6915,-5.6858,-5.6872,-5.6874,-5.6892,-5.6895,-5.6893,-5.6876,-5.6871,-5.6893,-5.6896,-5.69,-5.6983,-5.69,-5.6903,-5.6905,-5.7073,-5.7077,-5.708,0,0,0,0,0,0,-5.6845,-5.6853,-5.6913,-5.6881,-5.6887,-5.6877,-5.6897,-5.6894,-5.6904,-5.6896,-5.6893,-5.6889,-5.6891,-5.6896,-5.6944,-5.6983,-5.6904,-5.6907,-5.707,-5.7074,-5.7078,-5.7149,0,0,0,0,0,0,-5.6842,-5.6852,-5.6879,-5.6882,-5.6889,-5.6957,-5.69,-5.6896,-5.691,-5.6904,-5.6908,-5.6906,-5.689,-5.694,-5.6947,-5.6985,-5.6909,-5.7067,-5.7072,-5.7077,-5.7143,-5.7155,-5.7165,0,0,0,0,0,-5.6839,-5.6897,-5.6881,-5.6889,-5.6923,-5.6959,-5.6964,-5.6945,-5.6913,-5.694,-5.6935,-5.6906,-5.6977,-5.6945,-5.6953,-5.6993,-5.7064,-5.7071,-5.7077,-5.7138,-5.7152,-5.7165,0,0,0,0,0,0,-5.6898,-5.6897,-5.6879,-5.694,-5.6951,-5.695,-5.6983,-5.6961,-5.6979,-5.6973,-5.6947,-5.6949,-5.7001,-5.7002,-5.6966,-5.7061,-5.7015,-5.7023,-5.7059,-5.7073,-5.7084,-5.7082,-5.6912,0,0,0,0,0,-5.6918,-5.6949,-5.6946,-5.7,-5.7006,-5.6994,-5.7009,-5.6994,-5.7003,-5.7007,-5.7005,-5.7015,-5.7039,-5.7056,-5.7078,-5.7142,-5.7142,-5.7174,-5.7185,-5.7194,-5.7201,-5.7236,-5.725,-5.71,-5.71,-5.71,0,0,-5.6959,-5.6963,-5.6983,-5.7012,-5.7018,-5.705,-5.6998,-5.7033,-5.7056,-5.7012,-5.7058,-5.7057,-5.7065,-5.7123,-5.7147,-5.7124,-5.7243,-5.7202,-5.7209,-5.7212,-5.7244,-5.7258,-5.7271,-5.7105,-5.7104,-5.7103,0,0,-5.7051,-5.7057,-5.7103,-5.7111,-5.7122,-5.7114,-5.7125,-5.7129,-5.7127,-5.7173,-5.7141,-5.7167,-5.721,-5.7218,-5.7227,-5.7324,-5.7298,-5.7332,-5.7389,-5.7424,-5.7435,-5.7446,-5.7481,-5.7494,-5.7339,-5.7339,-5.7339,0,-5.7101,-5.7149,-5.7129,-5.7168,-5.7181,-5.7144,-5.719,-5.7198,-5.7215,-5.7225,-5.7199,-5.7253,-5.7256,-5.7315,-5.7339,-5.7347,-5.7359,-5.7331,-5.7436,-5.7446,-5.7455,-5.7488,-5.7501,-5.7343,-5.7343,-5.7342,-5.7342,0,-5.721,-5.7243,-5.7279,-5.7299,-5.7316,-5.7358,-5.7344,-5.7364,-5.7347,-5.7342,-5.7389,-5.7392,-5.7414,-5.7427,-5.7411,-5.7484,-5.7469,-5.744,-5.7393,-5.7474,-5.7505,-5.7517,-5.7349,-5.7348,-5.7346,-5.7345,0,0,-5.7338,-5.7348,-5.7362,-5.7371,-5.7381,-5.7406,-5.7446,-5.7469,-5.7487,-5.75,-5.7533,-5.7571,-5.7544,-5.7555,-5.7539,-5.757,-5.7647,-5.7536,-5.7536,-5.7557,-5.7728,-5.7751,-5.7766,-5.763,-5.7632,-5.7634,-5.7728,0,-5.743,-5.7501,-5.7485,-5.7554,-5.7585,-5.7551,-5.7586,-5.7596,-5.7592,-5.7616,-5.7611,-5.7639,-5.7601,-5.7608,-5.7636,-5.7632,-5.7681,-5.7624,-5.766,-5.7661,-5.7659,-5.7782,-5.7805,-5.7894,-5.774,-5.7742,-5.7743,0,-5.7546,-5.7566,-5.7639,-5.7646,-5.7658,-5.769,-5.7711,-5.7735,-5.7745,-5.774,-5.7753,-5.7732,-5.7771,-5.7724,-5.7778,-5.774,-5.7753,-5.7753,-5.7756,-5.7759,-5.7707,-5.7788,-5.7922,-5.7936,-5.7762,-5.776,-5.7759,0,-5.7633,-5.7678,-5.7728,-5.7737,-5.7745,-5.7769,-5.7773,-5.7781,-5.7796,-5.7814,-5.7824,-5.7845,-5.7857,-5.7874,-5.7859,-5.7826,-5.7915,-5.7867,-5.7912,-5.7913,-5.7932,-5.7931,-5.8071,-5.794,-5.794,-5.794,-5.794,0,-5.7737,-5.7784,-5.7768,-5.7799,-5.7849,-5.7831,-5.7881,-5.7881,-5.7888,-5.7918,-5.7889,-5.7917,-5.7895,-5.7921,-5.7909,-5.7956,-5.7961,-5.7958,-5.7954,-5.7961,-5.7961,-5.7969,-5.7963,-5.7943,-5.7943,-5.7942,-5.7941,0,-5.7844,-5.7835,-5.7887,-5.7892,-5.7894,-5.7931,-5.7935,-5.7963,-5.7957,-5.7995,-5.8003,-5.7993,-5.8023,-5.8009,-5.8039,-5.8031,-5.8092,-5.8079,-5.8089,-5.8086,-5.8132,-5.8128,-5.8281,-5.8301,-5.8158,-5.8159,-5.816,0,-5.7911,-5.7946,-5.7955,-5.7974,-5.7981,-5.8011,-5.8027,-5.801,-5.8028,-5.8043,-5.8069,-5.8096,-5.8117,-5.8165,-5.8161,-5.8184,-5.8172,-5.8224,-5.8175,-5.8181,-5.8174,-5.8172,-5.8176,-5.8234,-5.8236,-5.8237,-5.8238,0,-5.8032,-5.8026,-5.8052,-5.8077,-5.8097,-5.8115,-5.8131,-5.8147,-5.813,-5.8152,-5.8183,-5.8199,-5.8231,-5.8258,-5.8279,-5.8282,-5.8258,-5.8254,-5.8266,-5.8273,-5.8277,-5.8276,-5.8116,-5.825,-5.8249,-5.8248,-5.8248,-5.8247,-5.8121,-5.8151,-5.8163,-5.8192,-5.8203,-5.8218,-5.8245,-5.8244,-5.827,-5.8295,-5.8283,-5.8319,-5.8328,-5.8353,-5.836,-5.8387,-5.8366,-5.8383,-5.8387,-5.8392,-5.8399,-5.8273,-5.839,-5.839,-5.839,-5.8389,-5.8389,0,-5.824,-5.8247,-5.8274,-5.8298,-5.8322,-5.8298,-5.8314,-5.8335,-5.8368,-5.8379,-5.8401,-5.8436,-5.8463,-5.8461,-5.8485,-5.8507,-5.8497,-5.8514,-5.8513,-5.8514,-5.8415,-5.8403,-5.8523,-5.8523,-5.8523,-5.8522,-5.8522,-5.8522,-5.8305,-5.8356,-5.8352,-5.8407,-5.8412,-5.8448,-5.846,-5.8474,-5.8483,-5.8525,-5.8547,-5.8546,-5.8553,-5.8577,-5.8601,-5.8599,-5.861,-5.8632,-5.8626,-5.8534,-5.8521,-5.8508,-5.8497,-5.8634,-5.8634,-5.8723,-5.8723,-5.8724]}]]